• In Hungary
  • List of Countries
  • For 7 days
  • Water Temperature
  • Satellite Maps
  • Weather Map
  • News
  • Weather Widgets
  • user-avatar
    Login

    Hourly Weather Gavrilovka

    Today, 25 May, Friday

    Time Temperature Precipitation Wind Pressure Humidity
    00:00 +16°C° 0.2 mm 0 mps 739 mmHg 83%
    01:00 +15°C° 0.2 mm 0 mps 739 mmHg 84%
    02:00 +15°C° 0.1 mm 0 mps 739 mmHg 85%
    03:00 +15°C° 0.1 mm 0 mps 738 mmHg 86%
    04:00 +14°C° 0.1 mm 0 mps 738 mmHg 87%
    05:00 +18°C° 0 mm 1 mps 738 mmHg 83%
    06:00 +19°C° 0 mm 1 mps 737 mmHg 80%
    07:00 +19°C° 0 mm 2 mps 737 mmHg 76%
    08:00 +20°C° 0 mm 2 mps 737 mmHg 70%
    09:00 +22°C° 0 mm 3 mps 737 mmHg 63%
    10:00 +23°C° 0 mm 4 mps 736 mmHg 57%
    11:00 +22°C° 0.2 mm 4 mps 736 mmHg 62%
    12:00 +20°C° 0.2 mm 4 mps 736 mmHg 68%
    13:00 +19°C° 0.2 mm 4 mps 736 mmHg 73%
    14:00 +19°C° 0.4 mm 4 mps 736 mmHg 77%
    15:00 +18°C° 0.4 mm 4 mps 735 mmHg 80%
    16:00 +17°C° 0.4 mm 4 mps 735 mmHg 83%
    17:00 +15°C° 0.3 mm 4 mps 735 mmHg 85%
    18:00 +14°C° 0.3 mm 5 mps 735 mmHg 87%
    19:00 +13°C° 0.3 mm 5 mps 735 mmHg 89%
    20:00 +12°C° 0.5 mm 5 mps 735 mmHg 89%
    21:00 +10°C° 0.5 mm 5 mps 735 mmHg 89%
    22:00 +8°C° 0.5 mm 5 mps 736 mmHg 89%
    23:00 +8°C° 0.3 mm 5 mps 736 mmHg 88%

    Tomorrow, 26 May, Saturday

    Time Temperature Precipitation Wind Pressure Humidity
    00:00 +7°C° 0.3 mm 5 mps 736 mmHg 87%
    01:00 +6°C° 0.3 mm 5 mps 736 mmHg 85%
    02:00 +6°C° 0 mm 5 mps 736 mmHg 84%
    03:00 +5°C° 0 mm 5 mps 737 mmHg 83%
    04:00 +3°C° 0 mm 5 mps 737 mmHg 82%
    05:00 +4°C° 0 mm 6 mps 738 mmHg 79%
    06:00 +5°C° 0 mm 6 mps 738 mmHg 76%
    07:00 +6°C° 0 mm 7 mps 739 mmHg 73%
    08:00 +8°C° 0 mm 7 mps 739 mmHg 66%
    09:00 +9°C° 0 mm 7 mps 740 mmHg 58%
    10:00 +10°C° 0 mm 7 mps 740 mmHg 50%
    11:00 +11°C° 0 mm 7 mps 741 mmHg 47%
    12:00 +11°C° 0 mm 7 mps 741 mmHg 45%
    13:00 +12°C° 0 mm 7 mps 742 mmHg 42%
    14:00 +12°C° 0 mm 7 mps 742 mmHg 42%
    15:00 +12°C° 0 mm 7 mps 742 mmHg 42%
    16:00 +12°C° 0 mm 7 mps 742 mmHg 42%
    17:00 +11°C° 0 mm 6 mps 743 mmHg 46%
    18:00 +10°C° 0 mm 6 mps 743 mmHg 49%
    19:00 +9°C° 0 mm 5 mps 744 mmHg 52%
    20:00 +8°C° 0 mm 5 mps 744 mmHg 55%
    21:00 +6°C° 0 mm 4 mps 745 mmHg 58%
    22:00 +5°C° 0 mm 4 mps 746 mmHg 61%
    23:00 +4°C° 0 mm 3 mps 746 mmHg 64%

    Day after tomorrow, 27 May, Sunday

    Time Temperature Precipitation Wind Pressure Humidity
    00:00 +3°C° 0 mm 3 mps 746 mmHg 66%
    01:00 +3°C° 0 mm 2 mps 747 mmHg 69%
    02:00 +3°C° 0 mm 2 mps 747 mmHg 70%
    03:00 +3°C° 0 mm 2 mps 747 mmHg 71%
    04:00 +2°C° 0 mm 2 mps 747 mmHg 72%
    05:00 +4°C° 0 mm 2 mps 748 mmHg 66%
    06:00 +6°C° 0 mm 2 mps 748 mmHg 61%
    07:00 +8°C° 0 mm 2 mps 748 mmHg 55%
    08:00 +10°C° 0 mm 3 mps 748 mmHg 51%
    09:00 +11°C° 0 mm 3 mps 748 mmHg 47%
    10:00 +13°C° 0 mm 4 mps 748 mmHg 43%
    11:00 +14°C° 0 mm 4 mps 748 mmHg 43%
    12:00 +15°C° 0 mm 4 mps 747 mmHg 44%
    13:00 +16°C° 0 mm 5 mps 747 mmHg 44%
    14:00 +16°C° 0 mm 5 mps 746 mmHg 46%
    15:00 +17°C° 0 mm 5 mps 746 mmHg 48%
    16:00 +17°C° 0 mm 6 mps 745 mmHg 49%
    17:00 +16°C° 0 mm 5 mps 745 mmHg 54%
    18:00 +15°C° 0 mm 5 mps 744 mmHg 59%
    19:00 +14°C° 0 mm 4 mps 744 mmHg 64%
    20:00 +13°C° 0 mm 4 mps 743 mmHg 66%
    21:00 +12°C° 0 mm 4 mps 743 mmHg 69%
    22:00 +11°C° 0 mm 4 mps 743 mmHg 71%
    23:00 +10°C° 0 mm 5 mps 742 mmHg 70%

    28 May, Monday

    Time Temperature Precipitation Wind Pressure Humidity
    00:00 +10°C° 0 mm 5 mps 741 mmHg 70%
    01:00 +10°C° 0 mm 5 mps 740 mmHg 69%
    02:00 +10°C° 0.4 mm 6 mps 740 mmHg 74%
    03:00 +9°C° 0.4 mm 6 mps 739 mmHg 78%
    04:00 +9°C° 0.4 mm 6 mps 738 mmHg 83%
    05:00 +9°C° 0.5 mm 7 mps 737 mmHg 83%
    06:00 +10°C° 0.5 mm 7 mps 737 mmHg 83%
    07:00 +10°C° 0.5 mm 8 mps 736 mmHg 83%
    08:00 +9°C° 1.4 mm 7 mps 736 mmHg 85%
    09:00 +8°C° 1.4 mm 7 mps 736 mmHg 87%
    10:00 +7°C° 1.4 mm 6 mps 736 mmHg 90%
    11:00 +9°C° 0.1 mm 6 mps 736 mmHg 80%
    12:00 +10°C° 0.1 mm 6 mps 737 mmHg 71%
    13:00 +13°C° 0.1 mm 5 mps 737 mmHg 61%
    14:00 +13°C° 0.3 mm 6 mps 737 mmHg 60%
    15:00 +11°C° 0.3 mm 6 mps 737 mmHg 60%
    16:00 +11°C° 0.3 mm 6 mps 737 mmHg 59%
    17:00 +10°C° 0.1 mm 6 mps 737 mmHg 63%
    18:00 +9°C° 0.1 mm 5 mps 737 mmHg 67%
    19:00 +8°C° 0.1 mm 5 mps 738 mmHg 71%
    20:00 +7°C° 0 mm 4 mps 738 mmHg 74%
    21:00 +5°C° 0 mm 4 mps 738 mmHg 78%
    22:00 +3°C° 0 mm 3 mps 738 mmHg 81%
    23:00 +3°C° 0 mm 3 mps 739 mmHg 82%

    29 May, Tuesday

    Time Temperature Precipitation Wind Pressure Humidity
    00:00 +2°C° 0 mm 3 mps 739 mmHg 83%
    01:00 +1°C° 0 mm 3 mps 739 mmHg 83%
    02:00 +1°C° 0 mm 3 mps 739 mmHg 85%
    03:00 0°C° 0 mm 3 mps 739 mmHg 86%
    04:00 0°C° 0 mm 3 mps 739 mmHg 87%
    05:00 0°C° 0 mm 4 mps 739 mmHg 80%
    06:00 +3°C° 0 mm 4 mps 740 mmHg 73%
    07:00 +3°C° 0 mm 5 mps 740 mmHg 66%
    08:00 +4°C° 0.1 mm 6 mps 739 mmHg 62%
    09:00 +5°C° 0.1 mm 6 mps 739 mmHg 59%
    10:00 +6°C° 0.1 mm 7 mps 739 mmHg 55%
    11:00 +6°C° 0.2 mm 7 mps 739 mmHg 55%
    12:00 +8°C° 0.2 mm 7 mps 739 mmHg 54%
    13:00 +8°C° 0.2 mm 7 mps 739 mmHg 54%
    14:00 +8°C° 0.3 mm 7 mps 739 mmHg 56%
    15:00 +8°C° 0.3 mm 7 mps 739 mmHg 58%
    16:00 +8°C° 0.3 mm 7 mps 738 mmHg 59%
    17:00 +7°C° 0.1 mm 6 mps 739 mmHg 62%
    18:00 +7°C° 0.1 mm 5 mps 739 mmHg 65%
    19:00 +6°C° 0.1 mm 4 mps 739 mmHg 68%
    20:00 +5°C° 0 mm 3 mps 739 mmHg 74%
    21:00 +4°C° 0 mm 2 mps 739 mmHg 80%
    22:00 +3°C° 0 mm 1 mps 739 mmHg 86%
    23:00 +3°C° 0 mm 1 mps 739 mmHg 87%

    30 May, Wednesday

    Time Temperature Precipitation Wind Pressure Humidity
    00:00 +2°C° 0 mm 1 mps 739 mmHg 88%
    01:00 +2°C° 0 mm 1 mps 739 mmHg 88%
    02:00 +2°C° 0 mm 1 mps 739 mmHg 88%
    03:00 +2°C° 0 mm 1 mps 739 mmHg 88%
    04:00 +2°C° 0 mm 1 mps 739 mmHg 88%
    05:00 +3°C° 0 mm 1 mps 738 mmHg 82%
    06:00 +4°C° 0 mm 2 mps 738 mmHg 76%
    07:00 +5°C° 0 mm 3 mps 737 mmHg 70%
    08:00 +5°C° 0.7 mm 3 mps 736 mmHg 75%
    09:00 +5°C° 0.7 mm 4 mps 735 mmHg 80%
    10:00 +5°C° 0.7 mm 5 mps 735 mmHg 85%
    11:00 +5°C° 0.5 mm 5 mps 734 mmHg 88%
    12:00 +4°C° 0.5 mm 6 mps 733 mmHg 91%
    13:00 +4°C° 0.5 mm 6 mps 732 mmHg 93%
    14:00 +7°C° 0.2 mm 5 mps 731 mmHg 92%
    15:00 +9°C° 0.2 mm 5 mps 731 mmHg 90%
    16:00 +12°C° 0.2 mm 4 mps 730 mmHg 89%
    17:00 +13°C° 0.2 mm 4 mps 731 mmHg 86%
    18:00 +13°C° 0.2 mm 4 mps 731 mmHg 84%
    19:00 +13°C° 0.2 mm 4 mps 731 mmHg 81%
    20:00 +12°C° 0 mm 3 mps 731 mmHg 84%
    21:00 +10°C° 0 mm 2 mps 731 mmHg 87%
    22:00 +9°C° 0 mm 1 mps 731 mmHg 89%
    23:00 +8°C° 0.3 mm 2 mps 731 mmHg 91%
    Show more